date,time,SUV Intensity [MED/Hr],UV Index,Daily total [MED],Since Last [MED]
30/07/2022,00:11:02,0.000,0.0,0.0,0.0
30/07/2022,00:12:02,-0.001,0.0,0.0,0.0
30/07/2022,00:13:01,0.000,0.0,0.0,0.0
30/07/2022,00:14:01,0.000,0.0,0.0,0.0
30/07/2022,00:15:01,0.000,0.0,0.0,0.0
30/07/2022,00:16:02,-0.000,0.0,0.0,0.0
30/07/2022,00:17:01,0.001,0.0,0.0,0.0
30/07/2022,00:18:02,0.000,0.0,0.0,0.0
30/07/2022,00:19:01,0.000,0.0,0.0,0.0
30/07/2022,00:20:02,0.000,0.0,0.0,0.0
30/07/2022,00:21:03,0.000,0.0,0.0,0.0
30/07/2022,00:22:01,0.000,0.0,0.0,0.0
30/07/2022,00:23:02,0.001,0.0,0.0,0.0
30/07/2022,00:24:18,-0.001,0.0,0.0,0.0
30/07/2022,00:26:02,0.001,0.0,0.0,0.0
30/07/2022,00:27:01,0.000,0.0,0.0,0.0
30/07/2022,00:28:02,-0.000,0.0,0.0,0.0
30/07/2022,00:29:01,-0.001,0.0,0.0,0.0
30/07/2022,00:30:02,0.000,0.0,0.0,0.0
30/07/2022,00:31:02,0.000,0.0,0.0,0.0
30/07/2022,00:32:01,0.000,0.0,0.0,0.0
30/07/2022,00:33:02,0.000,0.0,0.0,0.0
30/07/2022,00:34:01,-0.000,0.0,0.0,0.0
30/07/2022,00:35:02,0.000,0.0,0.0,0.0
30/07/2022,00:36:02,0.000,0.0,0.0,0.0
30/07/2022,00:37:02,0.000,0.0,0.0,0.0
30/07/2022,00:38:01,0.000,0.0,0.0,0.0
30/07/2022,00:39:10,0.000,0.0,0.0,0.0
30/07/2022,00:40:01,0.000,0.0,0.0,0.0
30/07/2022,00:41:02,0.000,0.0,0.0,0.0
30/07/2022,00:42:01,0.000,0.0,0.0,0.0
30/07/2022,00:43:02,0.000,0.0,0.0,0.0
30/07/2022,00:44:01,0.000,0.0,0.0,0.0
30/07/2022,00:45:02,0.001,0.0,0.0,0.0
30/07/2022,00:46:01,0.000,0.0,0.0,0.0
30/07/2022,00:47:02,0.000,0.0,0.0,0.0
30/07/2022,00:48:01,0.000,0.0,0.0,0.0
30/07/2022,00:49:01,0.000,0.0,0.0,0.0
30/07/2022,00:50:03,0.000,0.0,0.0,0.0
30/07/2022,00:51:02,0.000,0.0,0.0,0.0
30/07/2022,00:52:02,0.000,0.0,0.0,0.0
30/07/2022,00:53:02,0.000,0.0,0.0,0.0
30/07/2022,00:54:01,0.001,0.0,0.0,0.0
30/07/2022,00:55:01,-0.001,0.0,0.0,0.0
30/07/2022,00:56:01,-0.000,0.0,0.0,0.0
30/07/2022,00:57:02,-0.000,0.0,0.0,0.0
30/07/2022,00:58:01,0.000,0.0,0.0,0.0
30/07/2022,00:59:02,0.000,0.0,0.0,0.0
30/07/2022,01:00:01,0.000,0.0,0.0,0.0
30/07/2022,01:01:02,0.001,0.0,0.0,0.0
30/07/2022,01:02:01,0.000,0.0,0.0,0.0
30/07/2022,01:03:02,0.001,0.0,0.0,0.0
30/07/2022,01:04:02,0.000,0.0,0.0,0.0
30/07/2022,01:05:10,0.001,0.0,0.0,0.0
30/07/2022,01:06:02,0.000,0.0,0.0,0.0
30/07/2022,01:07:02,0.001,0.0,0.0,0.0
30/07/2022,01:08:01,0.000,0.0,0.0,0.0
30/07/2022,01:09:02,0.000,0.0,0.0,0.0
30/07/2022,01:10:01,0.001,0.0,0.0,0.0
30/07/2022,01:11:02,0.000,0.0,0.0,0.0
30/07/2022,01:12:01,0.000,0.0,0.0,0.0
30/07/2022,01:13:01,0.001,0.0,0.0,0.0
30/07/2022,01:14:02,-0.001,0.0,0.0,0.0
30/07/2022,01:15:02,0.001,0.0,0.0,0.0
30/07/2022,01:16:02,0.000,0.0,0.0,0.0
30/07/2022,01:17:01,-0.001,0.0,0.0,0.0
30/07/2022,01:18:02,-0.000,0.0,0.0,0.0
30/07/2022,01:19:01,0.001,0.0,0.0,0.0
30/07/2022,01:20:02,0.000,0.0,0.0,0.0
30/07/2022,01:21:01,0.000,0.0,0.0,0.0
30/07/2022,01:22:02,0.001,0.0,0.0,0.0
30/07/2022,01:23:02,0.000,0.0,0.0,0.0
30/07/2022,01:24:01,0.000,0.0,0.0,0.0
30/07/2022,01:25:01,0.000,0.0,0.0,0.0
30/07/2022,01:26:10,0.000,0.0,0.0,0.0
30/07/2022,01:27:01,0.000,0.0,0.0,0.0
30/07/2022,01:28:02,0.000,0.0,0.0,0.0
30/07/2022,01:29:10,0.001,0.0,0.0,0.0
30/07/2022,01:30:01,0.001,0.0,0.0,0.0
30/07/2022,01:31:02,0.000,0.0,0.0,0.0
30/07/2022,01:32:02,0.000,0.0,0.0,0.0
30/07/2022,01:33:01,0.000,0.0,0.0,0.0
30/07/2022,01:34:01,0.001,0.0,0.0,0.0
30/07/2022,01:35:02,-0.001,0.0,0.0,0.0
30/07/2022,01:36:02,0.000,0.0,0.0,0.0
30/07/2022,01:37:02,0.001,0.0,0.0,0.0
30/07/2022,01:38:01,0.000,0.0,0.0,0.0
30/07/2022,01:39:02,0.000,0.0,0.0,0.0
30/07/2022,01:40:01,0.001,0.0,0.0,0.0
30/07/2022,01:40:49,0.000,0.0,0.0,0.0
30/07/2022,01:42:02,-0.000,0.0,0.0,0.0
30/07/2022,01:43:03,0.001,0.0,0.0,0.0
30/07/2022,01:44:02,0.000,0.0,0.0,0.0
30/07/2022,01:45:02,0.000,0.0,0.0,0.0
30/07/2022,01:46:01,0.000,0.0,0.0,0.0
30/07/2022,01:47:02,0.000,0.0,0.0,0.0
30/07/2022,01:48:02,0.000,0.0,0.0,0.0
30/07/2022,01:49:01,0.000,0.0,0.0,0.0
30/07/2022,01:50:02,-0.001,0.0,0.0,0.0
30/07/2022,01:51:02,0.001,0.0,0.0,0.0
30/07/2022,01:52:10,0.000,0.0,0.0,0.0
30/07/2022,01:53:01,0.000,0.0,0.0,0.0
30/07/2022,01:54:01,0.000,0.0,0.0,0.0
30/07/2022,01:55:10,-0.000,0.0,0.0,0.0
30/07/2022,01:56:01,0.000,0.0,0.0,0.0
30/07/2022,01:57:02,0.000,0.0,0.0,0.0
30/07/2022,01:58:01,0.000,0.0,0.0,0.0
30/07/2022,01:59:01,0.001,0.0,0.0,0.0
30/07/2022,02:00:02,-0.000,0.0,0.0,0.0
30/07/2022,02:01:01,0.001,0.0,0.0,0.0
30/07/2022,02:02:01,0.001,0.0,0.0,0.0
30/07/2022,02:03:02,0.000,0.0,0.0,0.0
30/07/2022,02:04:01,0.001,0.0,0.0,0.0
30/07/2022,02:05:02,0.001,0.0,0.0,0.0
30/07/2022,02:06:02,0.001,0.0,0.0,0.0
30/07/2022,02:07:02,0.000,0.0,0.0,0.0
30/07/2022,02:08:02,0.000,0.0,0.0,0.0
30/07/2022,02:09:02,0.001,0.0,0.0,0.0
30/07/2022,02:10:10,0.000,0.0,0.0,0.0
30/07/2022,02:11:01,0.001,0.0,0.0,0.0
30/07/2022,02:12:02,0.000,0.0,0.0,0.0
30/07/2022,02:13:01,0.001,0.0,0.0,0.0
30/07/2022,02:14:01,0.001,0.0,0.0,0.0
30/07/2022,02:15:02,0.001,0.0,0.0,0.0
30/07/2022,02:16:02,0.000,0.0,0.0,0.0
30/07/2022,02:17:02,0.000,0.0,0.0,0.0
30/07/2022,02:18:02,-0.001,0.0,0.0,0.0
30/07/2022,02:19:02,0.001,0.0,0.0,0.0
30/07/2022,02:20:02,0.001,0.0,0.0,0.0
30/07/2022,02:21:01,-0.000,0.0,0.0,0.0
30/07/2022,02:22:01,0.001,0.0,0.0,0.0
30/07/2022,02:23:02,0.000,0.0,0.0,0.0
30/07/2022,02:24:02,0.001,0.0,0.0,0.0
30/07/2022,02:25:01,0.001,0.0,0.0,0.0
30/07/2022,02:26:01,0.000,0.0,0.0,0.0
30/07/2022,02:27:10,0.001,0.0,0.0,0.0
30/07/2022,02:28:02,0.001,0.0,0.0,0.0
30/07/2022,02:29:01,0.001,0.0,0.0,0.0
30/07/2022,02:30:02,0.000,0.0,0.0,0.0
30/07/2022,02:31:02,0.000,0.0,0.0,0.0
30/07/2022,02:32:02,0.000,0.0,0.0,0.0
30/07/2022,02:33:02,0.001,0.0,0.0,0.0
30/07/2022,02:34:18,0.000,0.0,0.0,0.0
30/07/2022,02:36:03,0.001,0.0,0.0,0.0
30/07/2022,02:37:02,-0.000,0.0,0.0,0.0
30/07/2022,02:38:02,-0.000,0.0,0.0,0.0
30/07/2022,02:39:03,0.000,0.0,0.0,0.0
30/07/2022,02:40:09,0.001,0.0,0.0,0.0
30/07/2022,02:41:02,0.001,0.0,0.0,0.0
30/07/2022,02:42:01,0.000,0.0,0.0,0.0
30/07/2022,02:43:02,0.001,0.0,0.0,0.0
30/07/2022,02:44:01,0.000,0.0,0.0,0.0
30/07/2022,02:45:11,0.000,0.0,0.0,0.0
30/07/2022,02:46:02,0.000,0.0,0.0,0.0
30/07/2022,02:47:02,0.001,0.0,0.0,0.0
30/07/2022,02:48:10,0.001,0.0,0.0,0.0
30/07/2022,02:49:02,0.001,0.0,0.0,0.0
30/07/2022,02:50:02,0.001,0.0,0.0,0.0
30/07/2022,02:51:10,0.001,0.0,0.0,0.0
30/07/2022,02:52:01,0.000,0.0,0.0,0.0
30/07/2022,02:53:02,0.000,0.0,0.0,0.0
30/07/2022,02:54:10,0.001,0.0,0.0,0.0
30/07/2022,02:55:01,0.001,0.0,0.0,0.0
30/07/2022,02:56:02,0.001,0.0,0.0,0.0
30/07/2022,02:57:01,0.001,0.0,0.0,0.0
30/07/2022,02:58:04,-0.000,0.0,0.0,0.0
30/07/2022,02:59:02,0.001,0.0,0.0,0.0
30/07/2022,03:00:02,0.001,0.0,0.0,0.0
30/07/2022,03:01:01,0.001,0.0,0.0,0.0
30/07/2022,03:02:02,0.001,0.0,0.0,0.0
30/07/2022,03:03:01,0.001,0.0,0.0,0.0
30/07/2022,03:04:02,0.000,0.0,0.0,0.0
30/07/2022,03:05:02,0.001,0.0,0.0,0.0
30/07/2022,03:06:01,0.001,0.0,0.0,0.0
30/07/2022,03:07:02,0.001,0.0,0.0,0.0
30/07/2022,03:08:03,0.001,0.0,0.0,0.0
30/07/2022,03:09:10,0.001,0.0,0.0,0.0
30/07/2022,03:10:01,0.001,0.0,0.0,0.0
30/07/2022,03:11:04,0.001,0.0,0.0,0.0
30/07/2022,03:12:02,0.001,0.0,0.0,0.0
30/07/2022,03:13:01,0.001,0.0,0.0,0.0
30/07/2022,03:14:10,0.001,0.0,0.0,0.0
30/07/2022,03:15:01,0.001,0.0,0.0,0.0
30/07/2022,03:16:02,0.001,0.0,0.0,0.0
30/07/2022,03:17:10,0.001,0.0,0.0,0.0
30/07/2022,03:18:02,0.001,0.0,0.0,0.0
30/07/2022,03:19:02,0.001,0.0,0.0,0.0
30/07/2022,03:20:11,0.001,0.0,0.0,0.0
30/07/2022,03:21:02,0.001,0.0,0.0,0.0
30/07/2022,03:22:02,0.001,0.0,0.0,0.0
30/07/2022,03:23:02,0.001,0.0,0.0,0.0
30/07/2022,03:24:02,0.001,0.0,0.0,0.0
30/07/2022,03:25:02,0.000,0.0,0.0,0.0
30/07/2022,03:26:02,0.001,0.0,0.0,0.0
30/07/2022,03:27:01,0.001,0.0,0.0,0.0
30/07/2022,03:28:01,0.001,0.0,0.0,0.0
30/07/2022,03:29:02,0.001,0.0,0.0,0.0
30/07/2022,03:30:02,0.001,0.0,0.0,0.0
30/07/2022,03:31:02,0.001,0.0,0.0,0.0
30/07/2022,03:32:02,0.001,0.0,0.0,0.0
30/07/2022,03:33:02,0.001,0.0,0.0,0.0
30/07/2022,03:34:02,0.001,0.0,0.0,0.0
30/07/2022,03:35:11,0.001,0.0,0.0,0.0
30/07/2022,03:36:01,0.001,0.0,0.0,0.0
30/07/2022,03:37:01,0.001,0.0,0.0,0.0
30/07/2022,03:38:02,0.001,0.0,0.0,0.0
30/07/2022,03:39:02,0.000,0.0,0.0,0.0
30/07/2022,03:40:02,0.001,0.0,0.0,0.0
30/07/2022,03:41:01,0.001,0.0,0.0,0.0
30/07/2022,03:42:02,0.001,0.0,0.0,0.0
30/07/2022,03:43:02,0.001,0.0,0.0,0.0
30/07/2022,03:44:02,0.001,0.0,0.0,0.0
30/07/2022,03:45:02,0.001,0.0,0.0,0.0
30/07/2022,03:46:02,0.001,0.0,0.0,0.0
30/07/2022,03:47:02,0.001,0.0,0.0,0.0
30/07/2022,03:48:02,0.001,0.0,0.0,0.0
30/07/2022,03:49:02,0.001,0.0,0.0,0.0
30/07/2022,03:50:02,0.001,0.0,0.0,0.0
30/07/2022,03:51:01,0.001,0.0,0.0,0.0
30/07/2022,03:52:02,0.001,0.0,0.0,0.0
30/07/2022,03:53:02,0.001,0.0,0.0,0.0
30/07/2022,03:54:02,0.001,0.0,0.0,0.0
30/07/2022,03:55:02,0.001,0.0,0.0,0.0
30/07/2022,03:56:10,0.001,0.0,0.0,0.0
30/07/2022,03:57:02,0.001,0.0,0.0,0.0
30/07/2022,03:58:03,0.001,0.0,0.0,0.0
30/07/2022,03:59:02,0.001,0.0,0.0,0.0
30/07/2022,04:00:02,0.001,0.0,0.0,0.0
30/07/2022,04:01:10,0.001,0.0,0.0,0.0
30/07/2022,04:02:10,0.001,0.0,0.0,0.0
30/07/2022,04:03:02,0.001,0.0,0.0,0.0
30/07/2022,04:04:02,0.001,0.0,0.0,0.0
30/07/2022,04:05:02,0.001,0.0,0.0,0.0
30/07/2022,04:06:03,0.001,0.0,0.0,0.0
30/07/2022,04:07:02,0.001,0.0,0.0,0.0
30/07/2022,04:08:02,0.001,0.0,0.0,0.0
30/07/2022,04:09:02,0.001,0.0,0.0,0.0
30/07/2022,04:10:02,0.002,0.0,0.0,0.0
30/07/2022,04:11:02,0.001,0.0,0.0,0.0
30/07/2022,04:12:02,0.001,0.0,0.0,0.0
30/07/2022,04:13:02,0.002,0.0,0.0,0.0
30/07/2022,04:14:10,0.002,0.0,0.0,0.0
30/07/2022,04:15:02,0.002,0.0,0.0,0.0
30/07/2022,04:16:02,0.001,0.0,0.0,0.0
30/07/2022,04:17:02,0.002,0.0,0.0,0.0
30/07/2022,04:18:02,0.002,0.0,0.0,0.0
30/07/2022,04:19:02,0.002,0.0,0.0,0.0
30/07/2022,04:20:02,0.001,0.0,0.0,0.0
30/07/2022,04:21:02,0.002,0.0,0.0,0.0
30/07/2022,04:22:02,0.003,0.0,0.0,0.0
30/07/2022,04:23:02,0.002,0.0,0.0,0.0
30/07/2022,04:24:02,0.002,0.0,0.0,0.0
30/07/2022,04:25:10,0.002,0.0,0.0,0.0
30/07/2022,04:26:02,0.002,0.0,0.0,0.0
30/07/2022,04:27:02,0.003,0.0,0.0,0.0
30/07/2022,04:28:02,0.003,0.0,0.0,0.0
30/07/2022,04:29:02,0.002,0.0,0.0,0.0
30/07/2022,04:30:02,0.002,0.0,0.0,0.0
30/07/2022,04:31:02,0.003,0.0,0.0,0.0
30/07/2022,04:32:02,0.002,0.0,0.0,0.0
30/07/2022,04:33:02,0.003,0.0,0.0,0.0
30/07/2022,04:34:02,0.004,0.0,0.0,0.0
30/07/2022,04:35:02,0.003,0.0,0.0,0.0
30/07/2022,04:36:02,0.004,0.0,0.0,0.0
30/07/2022,04:37:03,0.004,0.0,0.0,0.0
30/07/2022,04:38:02,0.005,0.0,0.0,0.0
30/07/2022,04:39:02,0.004,0.0,0.0,0.0
30/07/2022,04:40:10,0.005,0.0,0.0,0.0
30/07/2022,04:41:02,0.005,0.0,0.0,0.0
30/07/2022,04:42:02,0.004,0.0,0.0,0.0
30/07/2022,04:43:10,0.005,0.0,0.0,0.0
30/07/2022,04:44:02,0.005,0.0,0.0,0.0
30/07/2022,04:45:02,0.005,0.0,0.0,0.0
30/07/2022,04:46:11,0.004,0.0,0.0,0.0
30/07/2022,04:47:02,0.005,0.0,0.0,0.0
30/07/2022,04:48:02,0.005,0.0,0.0,0.0
30/07/2022,04:49:02,0.005,0.0,0.0,0.0
30/07/2022,04:50:03,0.006,0.0,0.0,0.0
30/07/2022,04:51:02,0.006,0.0,0.0,0.0
30/07/2022,04:52:02,0.007,0.0,0.0,0.0
30/07/2022,04:53:02,0.006,0.0,0.0,0.0
30/07/2022,04:54:02,0.007,0.0,0.0,0.0
30/07/2022,04:55:02,0.007,0.0,0.0,0.0
30/07/2022,04:56:02,0.007,0.0,0.001,0.001
30/07/2022,04:57:02,0.008,0.0,0.001,0.0
30/07/2022,04:58:02,0.008,0.0,0.001,0.0
30/07/2022,04:59:02,0.008,0.0,0.001,0.0
30/07/2022,05:00:02,0.009,0.0,0.001,0.0
30/07/2022,05:01:11,0.009,0.0,0.001,0.0
30/07/2022,05:02:02,0.009,0.0,0.001,0.0
30/07/2022,05:03:02,0.010,0.0,0.002,0.001
30/07/2022,05:04:02,0.010,0.0,0.002,0.0
30/07/2022,05:05:02,0.010,0.0,0.002,0.0
30/07/2022,05:06:02,0.010,0.0,0.002,0.0
30/07/2022,05:07:02,0.010,0.0,0.002,0.0
30/07/2022,05:08:02,0.012,0.0,0.002,0.0
30/07/2022,05:09:03,0.012,0.0,0.003,0.001
30/07/2022,05:10:02,0.012,0.0,0.003,0.0
30/07/2022,05:11:02,0.014,0.0,0.003,0.0
30/07/2022,05:12:02,0.014,0.0,0.003,0.0
30/07/2022,05:13:02,0.015,0.0,0.004,0.001
30/07/2022,05:14:03,0.016,0.0,0.004,0.0
30/07/2022,05:15:02,0.015,0.0,0.004,0.0
30/07/2022,05:16:02,0.016,0.0,0.004,0.0
30/07/2022,05:17:02,0.018,0.0,0.005,0.001
30/07/2022,05:18:02,0.018,0.0,0.005,0.0
30/07/2022,05:19:11,0.018,0.0,0.005,0.0
30/07/2022,05:20:02,0.018,0.0,0.005,0.0
30/07/2022,05:21:02,0.020,0.0,0.006,0.001
30/07/2022,05:22:02,0.020,0.0,0.006,0.0
30/07/2022,05:23:03,0.021,0.0,0.006,0.0
30/07/2022,05:24:02,0.021,0.0,0.007,0.001
30/07/2022,05:25:02,0.022,0.0,0.007,0.0
30/07/2022,05:26:02,0.023,0.0,0.008,0.001
30/07/2022,05:27:03,0.024,0.0,0.008,0.0
30/07/2022,05:28:02,0.024,0.0,0.008,0.0
30/07/2022,05:29:02,0.026,0.0,0.009,0.001
30/07/2022,05:30:02,0.026,0.0,0.009,0.0
30/07/2022,05:31:02,0.028,0.0,0.01,0.001
30/07/2022,05:32:02,0.026,0.0,0.01,0.0
30/07/2022,05:33:02,0.029,0.0,0.011,0.001
30/07/2022,05:34:10,0.029,0.0,0.011,0.0
30/07/2022,05:35:02,0.030,0.0,0.012,0.001
30/07/2022,05:36:02,0.031,0.0,0.012,0.0
30/07/2022,05:37:10,0.032,0.0,0.013,0.001
30/07/2022,05:38:02,0.033,0.0,0.013,0.0
30/07/2022,05:39:02,0.033,0.0,0.014,0.001
30/07/2022,05:40:02,0.034,0.0,0.014,0.0
30/07/2022,05:41:02,0.035,0.0,0.015,0.001
30/07/2022,05:42:02,0.035,0.0,0.015,0.0
30/07/2022,05:43:02,0.036,0.0,0.016,0.001
30/07/2022,05:44:02,0.036,0.0,0.017,0.001
30/07/2022,05:45:03,0.036,0.0,0.017,0.0
30/07/2022,05:46:02,0.037,0.0,0.018,0.001
30/07/2022,05:47:02,0.038,0.0,0.018,0.0
30/07/2022,05:48:02,0.039,0.0,0.019,0.001
30/07/2022,05:49:02,0.039,0.0,0.02,0.001
30/07/2022,05:50:02,0.039,0.0,0.02,0.0
30/07/2022,05:51:02,0.041,0.0,0.021,0.001
30/07/2022,05:52:03,0.040,0.0,0.022,0.001
30/07/2022,05:53:02,0.042,0.0,0.022,0.0
30/07/2022,05:54:02,0.042,0.0,0.023,0.001
30/07/2022,05:55:02,0.043,0.0,0.024,0.001
30/07/2022,05:56:02,0.044,0.0,0.025,0.001
30/07/2022,05:57:03,0.045,0.0,0.025,0.0
30/07/2022,05:58:10,0.045,0.0,0.026,0.001
30/07/2022,05:59:02,0.046,0.0,0.027,0.001
30/07/2022,06:00:02,0.047,0.0,0.028,0.001
30/07/2022,06:01:02,0.049,0.0,0.028,0.0
30/07/2022,06:02:03,0.049,0.0,0.029,0.001
30/07/2022,06:03:02,0.051,0.0,0.03,0.001
30/07/2022,06:04:02,0.052,0.0,0.031,0.001
30/07/2022,06:05:02,0.053,0.0,0.032,0.001
30/07/2022,06:06:02,0.053,0.0,0.033,0.001
30/07/2022,06:07:02,0.053,0.0,0.033,0.0
30/07/2022,06:08:02,0.055,0.0,0.034,0.001
30/07/2022,06:09:02,0.057,0.0,0.035,0.001
30/07/2022,06:10:02,0.059,0.0,0.036,0.001
30/07/2022,06:11:02,0.060,0.0,0.037,0.001
30/07/2022,06:12:02,0.060,0.0,0.038,0.001
30/07/2022,06:13:02,0.062,0.0,0.039,0.001
30/07/2022,06:14:02,0.064,0.0,0.04,0.001
30/07/2022,06:15:02,0.067,0.0,0.041,0.001
30/07/2022,06:16:03,0.069,0.0,0.043,0.002
30/07/2022,06:17:02,0.072,0.0,0.044,0.001
30/07/2022,06:18:02,0.073,0.0,0.045,0.001
30/07/2022,06:19:02,0.077,0.0,0.046,0.001
30/07/2022,06:20:03,0.081,0.0,0.048,0.002
30/07/2022,06:21:02,0.083,0.0,0.049,0.001
30/07/2022,06:22:11,0.089,0.0,0.051,0.002
30/07/2022,06:23:02,0.092,0.0,0.052,0.001
30/07/2022,06:24:02,0.097,0.0,0.053,0.001
30/07/2022,06:25:03,0.102,0.0,0.055,0.002
30/07/2022,06:26:02,0.106,0.0,0.057,0.002
30/07/2022,06:27:02,0.110,0.0,0.059,0.002
30/07/2022,06:28:02,0.115,0.0,0.06,0.001
30/07/2022,06:29:02,0.118,0.0,0.062,0.002
30/07/2022,06:30:02,0.122,0.0,0.064,0.002
30/07/2022,06:31:03,0.125,0.0,0.066,0.002
30/07/2022,06:32:02,0.128,0.0,0.069,0.003
30/07/2022,06:33:02,0.131,0.0,0.071,0.002
30/07/2022,06:34:02,0.133,0.0,0.073,0.002
30/07/2022,06:35:03,0.135,0.0,0.075,0.002
30/07/2022,06:36:02,0.135,0.0,0.077,0.002
30/07/2022,06:37:10,0.138,0.0,0.08,0.003
30/07/2022,06:38:02,0.139,0.0,0.082,0.002
30/07/2022,06:39:03,0.140,0.0,0.084,0.002
30/07/2022,06:40:02,0.140,0.0,0.087,0.003
30/07/2022,06:41:03,0.140,0.0,0.089,0.002
30/07/2022,06:42:02,0.142,0.0,0.091,0.002
30/07/2022,06:43:03,0.145,0.0,0.094,0.003
30/07/2022,06:44:02,0.146,0.0,0.096,0.002
30/07/2022,06:45:03,0.145,0.0,0.099,0.003
30/07/2022,06:46:02,0.148,0.0,0.101,0.002
30/07/2022,06:47:02,0.149,0.0,0.104,0.003
30/07/2022,06:48:03,0.152,0.0,0.106,0.002
30/07/2022,06:49:02,0.155,0.0,0.109,0.003
30/07/2022,06:50:02,0.159,0.0,0.111,0.002
30/07/2022,06:51:02,0.163,0.0,0.114,0.003
30/07/2022,06:52:02,0.166,0.0,0.117,0.003
30/07/2022,06:53:18,0.171,0.0,0.12,0.003
30/07/2022,06:55:11,0.180,0.0,0.126,0.006
30/07/2022,06:56:02,0.186,0.0,0.128,0.002
30/07/2022,06:57:02,0.190,0.0,0.131,0.003
30/07/2022,06:58:02,0.197,0.0,0.135,0.004
30/07/2022,06:59:03,0.202,0.0,0.138,0.003
30/07/2022,07:00:02,0.205,0.0,0.141,0.003
30/07/2022,07:01:02,0.210,0.0,0.145,0.004
30/07/2022,07:02:03,0.219,1.0,0.148,0.003
30/07/2022,07:03:02,0.220,1.0,0.152,0.004
30/07/2022,07:04:03,0.225,1.0,0.156,0.004
30/07/2022,07:05:02,0.229,1.0,0.16,0.004
30/07/2022,07:06:11,0.233,1.0,0.164,0.004
30/07/2022,07:07:02,0.236,1.0,0.167,0.003
30/07/2022,07:08:02,0.237,1.0,0.171,0.004
30/07/2022,07:09:03,0.236,1.0,0.175,0.004
30/07/2022,07:10:02,0.234,1.0,0.179,0.004
30/07/2022,07:11:20,0.226,1.0,0.184,0.005
30/07/2022,07:13:03,0.219,0.0,0.19,0.006
30/07/2022,07:14:02,0.213,0.0,0.194,0.004
30/07/2022,07:15:03,0.210,0.0,0.197,0.003
30/07/2022,07:16:02,0.209,0.0,0.201,0.004
30/07/2022,07:17:02,0.210,0.0,0.204,0.003
30/07/2022,07:18:02,0.211,0.0,0.208,0.004
30/07/2022,07:19:03,0.211,0.0,0.211,0.003
30/07/2022,07:20:02,0.212,0.0,0.215,0.004
30/07/2022,07:21:02,0.214,0.0,0.219,0.004
30/07/2022,07:22:02,0.214,0.0,0.222,0.003
30/07/2022,07:23:02,0.216,0.0,0.226,0.004
30/07/2022,07:24:02,0.217,0.0,0.229,0.003
30/07/2022,07:25:02,0.217,0.0,0.233,0.004
30/07/2022,07:26:03,0.217,1.0,0.236,0.003
30/07/2022,07:27:02,0.220,1.0,0.24,0.004
30/07/2022,07:28:02,0.222,1.0,0.244,0.004
30/07/2022,07:29:03,0.225,1.0,0.248,0.004
30/07/2022,07:30:10,0.230,1.0,0.252,0.004
30/07/2022,07:31:02,0.236,1.0,0.255,0.003
30/07/2022,07:32:02,0.241,1.0,0.259,0.004
30/07/2022,07:33:03,0.248,1.0,0.263,0.004
30/07/2022,07:34:02,0.255,1.0,0.267,0.004
30/07/2022,07:35:03,0.259,1.0,0.272,0.005
30/07/2022,07:36:02,0.264,1.0,0.276,0.004
30/07/2022,07:37:02,0.267,1.0,0.28,0.004
30/07/2022,07:38:03,0.273,1.0,0.285,0.005
30/07/2022,07:39:02,0.280,1.0,0.29,0.005
30/07/2022,07:40:02,0.286,1.0,0.294,0.004
30/07/2022,07:41:03,0.293,1.0,0.299,0.005
30/07/2022,07:42:02,0.299,1.0,0.304,0.005
30/07/2022,07:43:10,0.307,1.0,0.31,0.006
30/07/2022,07:44:02,0.312,1.0,0.314,0.004
30/07/2022,07:45:10,0.317,1.0,0.32,0.006
30/07/2022,07:46:02,0.324,1.0,0.325,0.005
30/07/2022,07:47:03,0.328,1.0,0.33,0.005
30/07/2022,07:48:02,0.334,1.0,0.336,0.006
30/07/2022,07:49:02,0.339,1.0,0.341,0.005
30/07/2022,07:50:03,0.345,1.0,0.347,0.006
30/07/2022,07:51:11,0.353,1.0,0.354,0.007
30/07/2022,07:52:02,0.359,1.0,0.359,0.005
30/07/2022,07:53:03,0.367,1.0,0.365,0.006
30/07/2022,07:54:02,0.374,1.0,0.371,0.006
30/07/2022,07:55:02,0.382,1.0,0.377,0.006
30/07/2022,07:56:02,0.390,1.0,0.384,0.007
30/07/2022,07:57:02,0.397,1.0,0.39,0.006
30/07/2022,07:58:02,0.400,1.0,0.397,0.007
30/07/2022,07:59:02,0.402,1.0,0.404,0.007
30/07/2022,08:00:15,0.405,1.0,0.412,0.008
30/07/2022,08:02:03,0.408,1.0,0.424,0.012
30/07/2022,08:03:02,0.409,1.0,0.431,0.007
30/07/2022,08:04:03,0.410,1.0,0.438,0.007
30/07/2022,08:05:02,0.410,1.0,0.444,0.006
30/07/2022,08:06:02,0.408,1.0,0.451,0.007
30/07/2022,08:07:03,0.412,1.0,0.458,0.007
30/07/2022,08:08:02,0.414,1.0,0.465,0.007
30/07/2022,08:09:11,0.416,1.0,0.473,0.008
30/07/2022,08:10:02,0.421,1.0,0.479,0.006
30/07/2022,08:11:02,0.429,1.0,0.486,0.007
30/07/2022,08:11:54,0.434,1.0,0.492,0.006
30/07/2022,08:13:04,0.444,1.0,0.501,0.009
30/07/2022,08:14:02,0.449,1.0,0.508,0.007
30/07/2022,08:15:10,0.454,1.0,0.516,0.008
30/07/2022,08:16:02,0.458,1.0,0.523,0.007
30/07/2022,08:17:02,0.461,1.0,0.531,0.008
30/07/2022,08:17:54,0.462,1.0,0.537,0.006
30/07/2022,08:19:03,0.465,1.0,0.546,0.009
30/07/2022,08:20:02,0.473,1.0,0.554,0.008
30/07/2022,08:21:02,0.493,1.0,0.562,0.008
30/07/2022,08:22:02,0.510,1.0,0.57,0.008
30/07/2022,08:23:03,0.531,1.0,0.579,0.009
30/07/2022,08:24:02,0.557,1.0,0.588,0.009
30/07/2022,08:25:02,0.587,1.0,0.598,0.01
30/07/2022,08:26:03,0.605,1.0,0.608,0.01
30/07/2022,08:27:03,0.612,1.0,0.618,0.01
30/07/2022,08:28:03,0.631,1.0,0.628,0.01
30/07/2022,08:29:03,0.636,1.0,0.638,0.01
30/07/2022,08:30:02,0.656,2.0,0.649,0.011
30/07/2022,08:31:02,0.694,2.0,0.66,0.011
30/07/2022,08:32:03,0.715,2.0,0.672,0.012
30/07/2022,08:33:11,0.737,2.0,0.686,0.014
30/07/2022,08:34:02,0.750,2.0,0.697,0.011
30/07/2022,08:35:03,0.735,2.0,0.709,0.012
30/07/2022,08:36:11,0.710,2.0,0.723,0.014
30/07/2022,08:37:02,0.687,2.0,0.733,0.01
30/07/2022,08:38:02,0.630,1.0,0.743,0.01
30/07/2022,08:39:02,0.612,1.0,0.754,0.011
30/07/2022,08:40:03,0.554,1.0,0.764,0.01
30/07/2022,08:41:02,0.522,1.0,0.773,0.009
30/07/2022,08:42:02,0.489,1.0,0.781,0.008
30/07/2022,08:43:03,0.478,1.0,0.789,0.008
30/07/2022,08:44:02,0.472,1.0,0.797,0.008
30/07/2022,08:45:10,0.462,1.0,0.806,0.009
30/07/2022,08:46:03,0.455,1.0,0.812,0.006
30/07/2022,08:47:03,0.447,1.0,0.82,0.008
30/07/2022,08:48:10,0.436,1.0,0.828,0.008
30/07/2022,08:49:03,0.441,1.0,0.834,0.006
30/07/2022,08:50:03,0.446,1.0,0.842,0.008
30/07/2022,08:51:02,0.442,1.0,0.849,0.007
30/07/2022,08:52:02,0.444,1.0,0.857,0.008
30/07/2022,08:53:03,0.461,1.0,0.864,0.007
30/07/2022,08:54:02,0.482,1.0,0.872,0.008
30/07/2022,08:55:02,0.499,1.0,0.88,0.008
30/07/2022,08:56:03,0.504,1.0,0.889,0.009
30/07/2022,08:57:02,0.510,1.0,0.897,0.008
30/07/2022,08:58:02,0.512,1.0,0.906,0.009
30/07/2022,08:59:03,0.516,1.0,0.914,0.008
30/07/2022,09:00:02,0.523,1.0,0.923,0.009
30/07/2022,09:01:03,0.524,1.0,0.931,0.008
30/07/2022,09:02:02,0.511,1.0,0.94,0.009
30/07/2022,09:03:02,0.486,1.0,0.948,0.008
30/07/2022,09:04:03,0.457,1.0,0.956,0.008
30/07/2022,09:05:02,0.447,1.0,0.964,0.008
30/07/2022,09:06:12,0.436,1.0,0.972,0.008
30/07/2022,09:07:01,0.438,1.0,0.978,0.006
30/07/2022,09:08:11,0.480,1.0,0.987,0.009
30/07/2022,09:09:02,0.526,1.0,0.994,0.007
30/07/2022,09:10:10,0.560,1.0,1.005,0.011
30/07/2022,09:11:03,0.558,1.0,1.013,0.008
30/07/2022,09:12:03,0.537,1.0,1.022,0.009
30/07/2022,09:13:02,0.561,1.0,1.031,0.009
30/07/2022,09:14:10,0.575,1.0,1.042,0.011
30/07/2022,09:15:02,0.574,1.0,1.05,0.008
30/07/2022,09:16:03,0.569,1.0,1.06,0.01
30/07/2022,09:17:10,0.576,1.0,1.07,0.01
30/07/2022,09:18:05,0.590,1.0,1.079,0.009
30/07/2022,09:19:03,0.606,1.0,1.089,0.01
30/07/2022,09:20:03,0.616,1.0,1.099,0.01
30/07/2022,09:21:02,0.627,1.0,1.109,0.01
30/07/2022,09:22:02,0.630,1.0,1.12,0.011
30/07/2022,09:23:11,0.616,1.0,1.132,0.012
30/07/2022,09:24:02,0.589,1.0,1.14,0.008
30/07/2022,09:25:02,0.547,1.0,1.15,0.01
30/07/2022,09:26:02,0.521,1.0,1.159,0.009
30/07/2022,09:27:03,0.520,1.0,1.167,0.008
30/07/2022,09:28:02,0.541,1.0,1.176,0.009
30/07/2022,09:29:02,0.555,1.0,1.185,0.009
30/07/2022,09:30:03,0.565,1.0,1.195,0.01
30/07/2022,09:31:02,0.568,1.0,1.204,0.009
30/07/2022,09:32:11,0.554,1.0,1.215,0.011
30/07/2022,09:33:02,0.536,1.0,1.223,0.008
30/07/2022,09:34:03,0.543,1.0,1.232,0.009
30/07/2022,09:35:11,0.586,1.0,1.242,0.01
30/07/2022,09:36:02,0.615,1.0,1.251,0.009
30/07/2022,09:37:03,0.626,1.0,1.261,0.01
30/07/2022,09:38:02,0.611,1.0,1.272,0.011
30/07/2022,09:39:02,0.596,1.0,1.282,0.01
30/07/2022,09:40:03,0.597,1.0,1.292,0.01
30/07/2022,09:41:03,0.605,1.0,1.302,0.01
30/07/2022,09:42:03,0.615,1.0,1.312,0.01
30/07/2022,09:43:03,0.621,1.0,1.322,0.01
30/07/2022,09:44:02,0.602,1.0,1.332,0.01
30/07/2022,09:45:03,0.556,1.0,1.342,0.01
30/07/2022,09:46:03,0.509,1.0,1.351,0.009
30/07/2022,09:47:03,0.480,1.0,1.359,0.008
30/07/2022,09:48:02,0.468,1.0,1.367,0.008
30/07/2022,09:49:03,0.449,1.0,1.375,0.008
30/07/2022,09:50:02,0.441,1.0,1.382,0.007
30/07/2022,09:51:03,0.452,1.0,1.389,0.007
30/07/2022,09:52:02,0.492,1.0,1.397,0.008
30/07/2022,09:53:02,0.548,1.0,1.406,0.009
30/07/2022,09:54:11,0.629,1.0,1.417,0.011
30/07/2022,09:55:02,0.683,2.0,1.427,0.01
30/07/2022,09:56:11,0.723,2.0,1.44,0.013
30/07/2022,09:57:03,0.725,2.0,1.45,0.01
30/07/2022,09:58:03,0.704,2.0,1.462,0.012
30/07/2022,09:59:10,0.727,2.0,1.476,0.014
30/07/2022,10:00:02,0.774,2.0,1.487,0.011
30/07/2022,10:01:03,0.820,2.0,1.5,0.013
30/07/2022,10:02:03,0.837,2.0,1.514,0.014
30/07/2022,10:02:56,0.832,2.0,1.526,0.012
30/07/2022,10:04:04,0.772,2.0,1.542,0.016
30/07/2022,10:05:02,0.708,2.0,1.553,0.011
30/07/2022,10:06:02,0.681,2.0,1.565,0.012
30/07/2022,10:07:03,0.676,2.0,1.576,0.011
30/07/2022,10:08:02,0.675,2.0,1.587,0.011
30/07/2022,10:09:02,0.716,2.0,1.599,0.012
30/07/2022,10:10:03,0.823,2.0,1.612,0.013
30/07/2022,10:11:03,0.933,2.0,1.626,0.014
30/07/2022,10:12:03,1.012,2.0,1.643,0.017
30/07/2022,10:13:02,1.013,2.0,1.66,0.017
30/07/2022,10:14:03,0.910,2.0,1.676,0.016